Flag for Switzerland Weather past 2 weeks in Sion, Valais, Switzerland

Now
62 °F

Passing clouds.


Feels Like: 62 °F
Forecast: 47 / 66 °F
Wind: 12 mph from Southwest

Location: Sion

Current Time: Sep 5, 2015 at 3:25:05 AM

Latest Report: Sep 5, 2015 at 2:00 AM


Visibility: 11 mi

Pressure: 29.93 "Hg (28.17 "Hg at 514m altitude)

Humidity: 50%

Dew point: 43 °F

Location of SionLocation

Historic Weather in Sion — Graph

°F

Sion temperature yesterday

Maximum temperature yesterday: 74 °F (at 4:00 PM)
Minimum temperature yesterday: 54 °F (at 5:00 AM)
Average temperature yesterday: 64 °F

Past Weeks' High & Low Weather Summary

 TemperatureHumidityPressure
High90 °F (Aug 30, 3:00 PM)98% (Aug 25, 5:00 AM)30.26 "Hg (Aug 25, 5:00 AM)
Low52 °F (Aug 25, 7:00 AM)20% (Aug 31, 4:00 PM)29.71 "Hg (Aug 24, 3:00 PM)
Average68 °F62%29.98 "Hg
* Reported Aug 21 2:00 AM — Sep 5 2:00 AM, Sion, Weather by CustomWeather, © 2015

Note: Actual official high and low records may vary slightly from our data, if they occured in-between our weather recording intervals... More about our weather records

Advertising

Sion weather history for previous 24 hours

 ConditionsComfort  
Time TempWeatherWind HumidityBarometerVisibility
2:00 AM
Sat, Sep 5
62 °FPassing clouds.12 mph50%29.93 "Hg11 mi
1:00 AM63 °FMild.15 mph49%29.93 "HgN/A
12:00 AM64 °FMild.17 mph47%29.92 "HgN/A
10:00 PM
Fri, Sep 4
65 °FMild.18 mph47%29.90 "HgN/A
9:00 PM66 °FMild.14 mph47%29.87 "HgN/A
8:00 PM67 °FScattered clouds.17 mph43%29.85 "Hg16 mi
7:00 PM69 °FMild.18 mph43%29.83 "HgN/A
6:00 PM72 °FMild.18 mph38%29.81 "HgN/A
5:00 PM73 °FScattered clouds.16 mph37%29.81 "Hg16 mi
4:00 PM74 °FMild.15 mph36%29.81 "HgN/A
3:00 PM74 °FMild.10 mph33%29.85 "HgN/A
2:00 PM72 °FMild.8 mph34%29.89 "HgN/A
1:00 PM71 °FMild.8 mph42%29.93 "HgN/A
12:00 PM66 °FMild.5 mph48%29.97 "HgN/A
11:00 AM65 °FPartly sunny.2 mph54%29.99 "Hg12 mi
10:00 AM61 °FCool.3 mph64%30.01 "HgN/A
9:00 AM58 °FCool.3 mph71%30.03 "HgN/A
8:00 AM54 °FScattered clouds.1 mph80%30.04 "Hg16 mi
7:00 AM54 °FCool.No wind81%30.03 "HgN/A
6:00 AM55 °FCool.3 mph78%30.01 "HgN/A
5:00 AM54 °FCool.3 mph81%30.02 "HgN/A
4:00 AM55 °FCool.2 mph79%30.02 "HgN/A
3:00 AM56 °FCool.2 mph81%30.01 "HgN/A
Weather by CustomWeather, © 2015

See weather overviewHow to use our weather pages